カタログに戻る

THOR ABLESTAR DEB

運用中LEO
NORAD 147·DEBRIS·🇺🇸 United States

打ち上げ Jun 29, 1961 から Cape Canaveral Space Force Station

Loading…

次のパス (今後24時間)

TLE

最新Source: Space-Track

元期: Sep 14, 2026, 01:48 UTC

1 00147U 61015AH  26257.07533625  .00000449  00000-0  22764-3 0  9999
2 00147  66.6159 129.5137 0048973   7.7353 352.4485 14.24388746347126

AllMySatでTHOR ABLESTAR DEBをリアルタイム追跡

Download on the App Store